PST,Max TemperatureF,Mean TemperatureF,Min TemperatureF,Max Dew PointF,MeanDew PointF,Min DewpointF,Max Humidity, Mean Humidity, Min Humidity, Max Sea Level PressureIn, Mean Sea Level PressureIn, Min Sea Level PressureIn, Max VisibilityMiles, Mean VisibilityMiles, Min VisibilityMiles, Max Wind SpeedMPH, Mean Wind SpeedMPH, Max Gust SpeedMPH,PrecipitationIn, CloudCover, Events, WindDirDegrees
2012-12-1,52,49,46,46,45,44,100,93,86,29.85,29.66,29.34,10,6,1,23,3,31,0.94,8,Rain,350
2012-12-2,53,47,40,49,39,36,89,70,50,30.08,29.75,29.29,10,9,3,23,3,31,0.70,6,Rain,247
2012-12-3,51,45,38,42,38,36,92,77,61,30.18,30.07,29.91,10,10,8,24,2,31,0.12,5,Rain,350
2012-12-4,56,51,46,49,47,43,100,83,66,30.02,29.96,29.91,10,8,2,17,5,21,1.20,8,Rain,18
2012-12-5,53,50,47,48,46,42,100,89,77,30.20,30.12,30.01,10,8,2,9,3,12,0.18,8,Rain,325
2012-12-6,49,42,34,43,36,31,89,73,56,30.31,30.25,30.19,10,10,10,10,3,13,T,6,Rain,312
2012-12-7,38,34,30,34,31,28,100,93,85,30.34,30.29,30.26,10,4,0,7,1,9,0.00,7,Fog,19
2012-12-8,43,38,32,36,34,31,92,83,73,30.38,30.30,30.24,10,9,4,7,1,8,T,6,,187
2012-12-9,47,41,34,37,35,32,92,76,60,30.48,30.43,30.37,10,9,7,6,1,7,0.00,7,,310
2012-12-10,51,43,34,41,37,32,96,80,63,30.48,30.38,30.23,10,8,3,7,2,9,0.00,3,,186
2012-12-11,41,39,37,38,37,36,100,93,85,30.21,29.90,29.71,10,5,0,14,2,15,0.19,8,Fog-Rain,340
2012-12-12,46,39,32,38,35,32,100,83,65,30.01,29.88,29.76,10,6,0,7,1,9,0.03,7,Fog-Rain,264
2012-12-13,38,36,33,32,31,30,96,86,76,30.05,29.98,29.87,10,9,2,8,3,9,0.00,8,,15
2012-12-14,40,35,30,34,32,29,96,88,79,30.05,29.94,29.86,10,8,2,6,1,7,T,7,Rain,7
2012-12-15,36,32,27,36,30,26,100,95,89,30.02,29.92,29.81,10,5,0,7,1,8,0.17,8,Fog-Rain-Snow,352
2012-12-16,50,43,35,40,35,33,100,93,85,29.96,29.79,29.50,10,8,2,23,4,31,0.60,8,Rain,356
2012-12-17,50,40,30,41,34,29,100,83,65,30.08,29.95,29.61,10,7,0,26,3,33,0.25,7,Fog-Rain-Snow,224
2012-12-18,39,34,28,32,30,28,96,83,70,30.19,30.09,30.04,10,5,0,8,0,12,0.06,7,Fog-Snow,243
2012-12-19,48,39,30,30,27,21,100,69,37,30.18,30.07,29.84,10,7,0,31,11,40,0.00,7,Fog,161
2012-12-20,45,40,34,34,31,22,92,66,40,29.86,29.81,29.69,10,9,2,38,13,48,0.54,7,Rain,154
2012-12-21,43,39,35,38,35,33,92,89,85,29.83,29.78,29.67,10,9,6,20,3,24,0.09,8,Rain,345
2012-12-22,44,38,32,37,34,32,96,79,62,29.90,29.74,29.59,10,9,5,20,4,26,0.08,7,Rain,264
2012-12-23,43,38,33,38,35,32,100,91,82,30.03,29.76,29.52,10,8,2,29,4,37,0.24,8,Rain,317
2012-12-24,39,35,31,34,32,28,100,90,79,30.27,30.16,30.05,10,3,0,8,1,8,0.00,6,Fog,249
2012-12-25,45,40,34,39,35,33,100,85,70,30.05,29.86,29.72,10,7,1,21,5,28,0.07,8,Rain,33
2012-12-26,44,41,37,38,36,35,92,84,76,30.10,29.90,29.74,10,10,8,6,1,7,T,8,Rain,319
2012-12-27,45,38,30,37,34,28,92,80,67,30.22,30.17,30.09,10,9,2,8,2,10,0.04,6,Rain,6
2012-12-28,35,33,31,34,31,30,100,96,92,30.19,30.13,30.09,6,3,0,6,1,7,0.12,8,Fog-Rain-Snow,347
2012-12-29,42,38,33,36,33,32,100,90,79,30.19,30.15,30.11,10,6,2,6,1,7,0.04,8,Rain-Snow,314
2012-12-30,45,36,26,34,31,26,100,79,58,30.31,30.22,30.15,10,8,4,7,1,8,0.00,5,,271
2012-12-31,35,31,27,31,28,25,100,88,75,30.37,30.32,30.28,10,5,0,8,1,9,T,8,Fog,317